Location: Newark
(48.6461°N, 4.3644°W)
Time: 07:46:55
(UTC+00:00)

Altair - Pass Details

Date: 25 January 2021
Orbit: 1501 x 1682 km, 47.2° (Epoch: 24 February)

Event Time Altitude Azimuth Distance (km) Brightness Sun altitude
Exits shadow 06:38:02 - 248° (WSW) 4,330 9.4 -12.7°
Reaches altitude 10° 06:39:23 10° 247° (WSW) 3,909 9.2 -12.5°
Maximum altitude 06:49:27 76° 165° (SSE) 1,726 7.8 -10.9°
Drops below altitude 10° 06:59:35 10° 82° (E) 3,939 10.8 -9.3°
Sets 07:02:44 0° 81° (E) 4,918 11.4 -8.8°
